Orbital Elements at Epoch 2459200.5 (2020-Dec-17.0) TDB
Reference: JPL 16 (heliocentric ecliptic J2000)
Element | Value | Uncertainty (1-sigma) | Units |
e | .1037692936992358 | 7.225e-08 | |
a | 2.644641840974654 | 1.7018e-08 | au |
q | 2.370209225049267 | 1.8664e-07 | au |
i | 14.88561564008768 | 6.8401e-06 | deg |
node | 177.4120305837515 | 2.1653e-05 | deg |
peri | 239.2009727350259 | 3.3294e-05 | deg |
M | 175.006717767573 | 2.4598e-05 | deg |
tp | 2458436.838418047175 (2018-Nov-14.33841805) | 0.00010708 | TDB |
period | 1570.900666042641 4.30 | 1.5163e-05 4.151e-08 | d yr |
n | .2291678957059071 | 2.212e-09 | deg/d |
Q | 2.919074456900041 | 1.8784e-08 | au |
|
| | Orbit Determination Parameters
Additional Information
|